Content
SEND FEEDBACK

Daily
Averages
Monthly
Summary
United States of America

TAYLORSVILLE, NORTH CAROLINA


Home > North America > United States > North Carolina
Elevation: 110 feet     Latitude: 35 50N     Longitude: 081 09W

WEATHER
 
SELECT A DAY
Number of Records: 383,939;   Date Range: 3/17/98 - 7/29/14
 
SHARE

PRINT THIS DATA

[ ← Previous Day ]
WEATHER ALMANAC - FEBRUARY 13, 2013
[ Next Day → ]
[ °C ]   °F
Weather ElementAverageHighLow
Temperature42.5 °F45.1 °F (5:35 pm)37 °F (11:35 pm)
Dewpoint40 °F43.2 °F (5:15 pm)32 °F (11:55 pm)
Humidity91 %97 % (9:15 am)75 % (1:15 am)
Barometer29.77 in29.92 in (12:35 am)29.65 in (1:35 pm)
Wind Speed2.7 mph8.1 mph (5:15 pm)
Weather ElementAverage
Visibility6.4 mi
Wind DirectionESE (111.7 °)

Weather ElementTotal
Precipitation0.31 in
Heating Degree Days24 (Base 65)
Averaged from 71 records on February 13, 2013
WEATHER CONDITIONS BREAKOUT
WIND DIRECTION BREAKOUT
WEATHER BY HOUR - FEBRUARY 13, 2013
[ °C ]   °F
Local TimeTemperatureDewpointHumidityBarometerVisibilityWind DirectionWind SpeedGust SpeedPrecipitationEventsConditions
12:35 AM44.8 °F37.9 °F77 %29.92 in10.0 miCalmLight Drizzle
12:55 AM44.6 °F38.3 °F79 %29.90 in10.0 miNorth (350°)3.5 mphLight Drizzle
1:15 AM45.0 °F37.4 °F75 %29.85 in10.0 miEast (80°)6.9 mphRainLight Rain
1:35 AM43.9 °F38.7 °F82 %29.90 in10.0 miCalm0.02 inRainRain
1:55 AM42.4 °F40.1 °F91 %29.88 in4.0 miCalm0.08 inRainHeavy Rain
2:15 AM42.3 °F39.7 °F91 %29.86 in7.0 miNE (50°)4.6 mph0.03 inRainRain
2:35 AM42.1 °F40.1 °F93 %29.85 in10.0 miCalm0.05 inRainRain
2:55 AM42.1 °F40.1 °F93 %29.85 in4.0 miNorth (350°)3.5 mph0.09 inRainRain
3:15 AM42.1 °F40.3 °F93 %29.84 in10.0 miCalmDrizzle
3:35 AM42.1 °F40.1 °F93 %29.84 in7.0 miNNE (30°)3.5 mph0.01 inRainLight Rain
3:55 AM42.1 °F40.1 °F93 %29.83 in10.0 miCalm0.01 inDrizzle
4:15 AM42.1 °F40.1 °F93 %29.84 in10.0 miCalmDrizzle
4:35 AM42.1 °F40.1 °F93 %29.83 in7.0 miCalm0.01 inDrizzle
4:55 AM41.9 °F40.1 °F93 %29.81 in7.0 miCalm0.01 inOvercast
5:15 AM41.9 °F40.1 °F93 %29.81 in10.0 miCalmOvercast
5:35 AM41.9 °F40.1 °F93 %29.83 in10.0 miCalmOvercast
5:55 AM41.5 °F40.1 °F95 %29.81 in10.0 miNorth (10°)4.6 mphOvercast
6:15 AM41.5 °F40.1 °F95 %29.79 in7.0 miCalmOvercast
6:35 AM41.4 °F39.7 °F94 %29.81 in10.0 miCalmOvercast
6:55 AM41.4 °F39.7 °F94 %29.81 in7.0 miCalmOvercast
7:15 AM41.2 °F39.7 °F95 %29.79 in3.0 miNE (40°)3.5 mphDrizzle
7:35 AM41.0 °F39.7 °F95 %29.79 in1.2 miCalmLight Drizzle
7:55 AM41.2 °F40.1 °F96 %29.79 in1.5 miCalmOvercast
8:15 AM41.2 °F40.1 °F96 %29.82 in2.0 miCalmOvercast
8:35 AM41.4 °F40.3 °F96 %29.81 in1.5 miCalmDrizzle
8:55 AM41.9 °F40.6 °F95 %29.78 in1.2 miENE (60°)3.5 mphDrizzle
9:15 AM41.9 °F41.0 °F97 %29.77 in1.5 miCalmLight Drizzle
9:35 AM42.1 °F41.0 °F96 %29.78 in3.0 miCalmOvercast
9:55 AM42.3 °F40.6 °F94 %29.78 in5.0 miESE (120°)3.5 mphOvercast
10:15 AM42.1 °F40.6 °F95 %29.77 in1.5 miEast (100°)3.5 mphDrizzle
10:35 AM42.4 °F41.0 °F95 %29.77 in1.5 miEast (90°)3.5 mphDrizzle
10:55 AM42.3 °F41.0 °F95 %29.77 in1.8 miCalmLight Drizzle
11:15 AM42.4 °F41.0 °F95 %29.74 in1.8 miCalmLight Drizzle
11:35 AM42.8 °F41.0 °F93 %29.74 in1.8 miCalmLight Drizzle
11:55 AM43.0 °F41.4 °F94 %29.72 in2.0 miCalmLight Drizzle
12:15 PM43.2 °F41.4 °F93 %29.70 in2.5 miCalmOvercast
12:35 PM43.0 °F41.4 °F94 %29.69 in1.5 miCalmLight Drizzle
12:55 PM43.2 °F41.5 °F94 %29.70 in1.5 miCalmDrizzle
1:15 PM43.5 °F42.1 °F95 %29.67 in1.5 miCalmDrizzle
1:35 PM43.7 °F42.1 °F94 %29.65 in2.5 miCalmDrizzle
1:55 PM43.9 °F42.3 °F94 %29.66 in5.0 miSSW (200°)3.5 mphOvercast
2:15 PM43.9 °F42.1 °F93 %29.65 in5.0 miSSW (210°)3.5 mphOvercast
2:35 PM43.7 °F42.1 °F94 %29.66 in2.5 miCalmOvercast
2:55 PM43.7 °F42.1 °F94 %29.65 in4.0 miSW (220°)3.5 mphOvercast
3:15 PM43.9 °F42.3 °F94 %29.66 in7.0 miSW (220°)4.6 mphOvercast
3:35 PM44.1 °F42.4 °F94 %29.66 in2.0 miSW (220°)5.8 mphLight Drizzle
3:55 PM44.1 °F42.6 °F95 %29.66 in2.0 miWSW (250°)6.9 mphOvercast
4:15 PM44.1 °F42.4 °F94 %29.66 in1.8 miSSW (210°)4.6 mphOvercast
4:35 PM44.2 °F42.8 °F95 %29.66 in2.0 miSW (220°)3.5 mphOvercast
4:55 PM44.6 °F43.0 °F94 %29.67 in4.0 miSW (220°)6.9 mphOvercast
5:15 PM45.0 °F43.2 °F93 %29.67 in10.0 miWSW (240°)8.1 mphOvercast
5:35 PM45.1 °F42.8 °F91 %29.68 in10.0 miSW (230°)8.1 mphOvercast
5:55 PM45.0 °F42.8 °F92 %29.68 in10.0 miSW (220°)5.8 mphMostly Cloudy
6:15 PM44.8 °F42.8 °F93 %29.70 in10.0 miSW (220°)4.6 mphMostly Cloudy
6:35 PM44.8 °F42.8 °F93 %29.71 in10.0 miWSW (250°)4.6 mphOvercast
6:55 PM44.8 °F42.8 °F93 %29.73 in10.0 miWest (270°)5.8 mphOvercast
7:15 PM44.2 °F42.4 °F93 %29.74 in10.0 miWSW (240°)3.5 mphOvercast
7:35 PM44.1 °F42.1 °F93 %29.75 in10.0 miWSW (250°)5.8 mphScattered Clouds
7:55 PM42.4 °F40.5 °F93 %29.76 in10.0 miWSW (250°)4.6 mphClear
8:15 PM42.8 °F41.2 °F94 %29.77 in10.0 miWest (260°)3.5 mphClear
8:35 PM43.7 °F40.3 °F88 %29.78 in10.0 miWNW (300°)4.6 mphClear
8:55 PM42.8 °F38.1 °F84 %29.78 in10.0 miWest (280°)4.6 mphClear
9:15 PM41.5 °F36.5 °F82 %29.79 in10.0 miWNW (290°)8.1 mphClear
9:35 PM41.0 °F34.7 °F78 %29.80 in10.0 miWNW (290°)5.8 mphClear
9:55 PM41.0 °F33.8 °F76 %29.81 in10.0 miWest (270°)6.9 mphClear
10:15 PM40.1 °F33.8 °F78 %29.83 in10.0 miWest (280°)3.5 mphClear
10:35 PM38.8 °F33.4 °F81 %29.83 in10.0 miWest (270°)6.9 mphClear
10:55 PM38.5 °F32.9 °F80 %29.84 in10.0 miWest (270°)6.9 mphClear
11:15 PM37.9 °F32.5 °F81 %29.84 in10.0 miCalmClear
11:35 PM37.0 °F32.9 °F85 %29.85 in10.0 miCalmClear
11:55 PM37.4 °F32.0 °F81 %29.85 in10.0 miCalmClear
Hourly data recorded from KSVH, located miles away from Taylorsville, North Carolina







STORIES FROM OUR PARTNERS